Flag Weather past 2 weeks in Deggendorf, Bavaria, Germany

Now
32 °F

Clear.


Feels Like: 32 °F
Forecast: 31 / 43 °F
Wind: 2 mph from Northeast

Location: Straubing

Current Time: Nov 25, 2014 at 11:27:50 PM

Latest Report: Nov 25, 2014 at 11:00 PM


Visibility: 6 mi

Pressure: 30.24 "Hg

Humidity: 90%

Dew point: 30 °F

Location of DeggendorfLocation

Historic Weather in Deggendorf — Graph

°F

Deggendorf temperature yesterday

Maximum temperature yesterday: 42 °F (at 9:00 PM)
Minimum temperature yesterday: 39 °F (at 6:00 AM)
Average temperature yesterday: 40 °F

Past Weeks' High & Low Weather Summary

 TemperatureHumidityPressure
High60 °F (Nov 12, 1:00 PM)100% (Nov 14, 12:00 AM)30.35 "Hg (Nov 14, 12:00 AM)
Low31 °F (Nov 17, 6:00 AM)69% (Nov 21, 12:00 PM)29.47 "Hg (Nov 16, 12:00 AM)
Average43 °F93%29.99 "Hg
* Reported Nov 10 9:00 PM — Nov 25 9:00 PM, Deggendorf, Weather by CustomWeather, © 2014

Note: Actual official high and low records may vary slightly from our data, if they occured in-between our weather recording intervals... More about our weather records

Advertising

Deggendorf weather history for previous 24 hours

 ConditionsComfort  
Time TempWeatherWind HumidityBarometerVisibility
9:00 PM
Nov 25
35 °FClear.5 mph87%30.26 "Hg6 mi
8:00 PM36 °FClear.5 mph86%30.26 "Hg7 mi
7:00 PM37 °FClear.7 mph83%30.26 "Hg7 mi
6:00 PM39 °FClear.5 mph87%30.25 "Hg6 mi
5:00 PM39 °FFog.2 mph92%30.26 "Hg3 mi
3:00 PM44 °FFog.3 mph87%30.25 "Hg4 mi
2:00 PM43 °FFog.2 mph90%30.26 "Hg3 mi
1:00 PM43 °FFog.3 mph90%30.28 "Hg3 mi
12:00 PM42 °FFog.3 mph91%30.30 "Hg2 mi
11:00 AM42 °FFog.2 mph92%30.31 "Hg2 mi
9:00 AM40 °FFog.2 mph97%30.32 "Hg1 mi
8:00 AM41 °FFog.2 mph96%30.32 "Hg1 mi
7:00 AM41 °FFog.1 mph96%30.32 "Hg1 mi
6:00 AM41 °FFog.1 mph97%30.32 "Hg1 mi
5:00 AM41 °FFog.1 mph98%30.32 "Hg1 mi
3:00 AM41 °FLow clouds.2 mph99%30.33 "Hg1 mi
2:00 AM41 °FFog.2 mph98%30.33 "Hg1 mi
1:00 AM41 °FFog.2 mph98%30.33 "Hg1 mi
12:00 AM41 °FFog.2 mph98%30.33 "Hg1 mi
11:00 PM
Nov 24
42 °FFog.2 mph97%30.32 "Hg2 mi
Weather by CustomWeather, © 2014

See weather overviewHow to use our weather pages